www.pogodaiklimat.ru

Погода и климат >> Архив погоды >> Россия >> Магаданская область >> Сеймчан


АРХИВ ПОГОДЫ в Сеймчане

Время (UTC), дата Ветер
(напр.,м/с)
 
Видим.   Явления Облачность Т
(С)
Тd
(С)
f
(%)
Тe
(С)
Тes
(С)
Комфортность P
(гПа)
Po
(гПа)
Тmin
(С)
Tmax
(С)
R
(мм)
R24
(мм)
S
(см)
03 12.02 Ю 1 50 км {снег} ясно -32.8 -38.5 57 -37 -36 опасность
обморожения
1017.8 987.9
06 12.02 Ю 1 50 км {снег} 8/0
[Ac trans Ci fib]
-34.2 -39.4 59 -39 -39 опасность
обморожения
1019.4 989.2
09 12.02 штиль 0 50 км ледяные иглы {снег} 4/0
[Ac trans Ci fib]
-40.3 -44.6 63 -40 -40 опасность
обморожения
1020.8 989.8 -31.8
12 12.02 штиль 0 50 км ледяные иглы {снег} ясно -44.0 -48.7 59 -44 -44 опасность
обморожения
1022.0 990.6
15 12.02 штиль 0 4000 м ледяные иглы {снег} ясно -43.7 -48.3 60 -44 -44 опасность
обморожения
1023.1 991.6
18 12.02 штиль 0 4000 м ледяные иглы {снег} ясно -44.4 -49.2 59 -44 -44 опасность
обморожения
1023.6 992.0
21 12.02 штиль 0 50 км ледяные иглы {снег} 4/0
[Ci fib]
-46.6 -51.7 56 -47 -47 опасность
обморожения
1025.1 993.2 -46.6 52
00 13.02 штиль 0 4000 м ледяные иглы {снег} 3/0
[Ci fib]
-41.6 -46.2 61 -42 -41 опасность
обморожения
1025.8 994.5 -46.7
03 13.02 штиль 0 50 км {снег} 3/0
[Ci fib]
-32.8 -40.1 48 -33 -31 опасность
обморожения
1024.4 994.3
06 13.02 штиль 0 50 км {снег} 3/0
[Ci fib]
-34.5 -40.4 55 -35 -35 опасность
обморожения
1025.3 995.0
09 13.02 штиль 0 50 км ледяные иглы {снег} ясно -43.2 -47.9 60 -43 -43 опасность
обморожения
1027.5 995.9 -32.2
12 13.02 штиль 0 50 км ледяные иглы {снег} ясно -45.9 -50.9 57 -46 -46 опасность
обморожения
1027.8 995.9
15 13.02 штиль 0 50 км ледяные иглы {снег} ясно -47.1 -52.1 56 -47 -47 опасность
обморожения
1027.4 995.3
18 13.02 штиль 0 50 км ледяные иглы {снег} ясно -47.7 -52.9 55 -48 -48 опасность
обморожения
1026.2 994.1
21 13.02 штиль 0 4000 м ледяные иглы {снег} ясно -48.6 -53.8 54 -49 -49 опасность
обморожения
1025.1 992.9 -48.7 52
00 14.02 ЮВ 1 4000 м ледяные иглы {снег} ясно -43.8 -48.6 59 -49 -48 опасность
обморожения
1023.3 991.8
03 14.02 Ю 1 50 км {снег} ясно -35.9 -42.3 52 -41 -39 опасность
обморожения
1019.3 989.0
06 14.02 ЮВ 1 50 км {снег} 1/0
[Ci fib]
-35.9 -41.8 54 -41 -41 опасность
обморожения
1017.6 987.3
09 14.02 штиль 0 10 км ледяные иглы {снег} 3/0
[Ci fib]
-44.2 -49.1 58 -44 -44 опасность
обморожения
1017.3 985.9 -34.4
12 14.02 штиль 0 10 км ледяные иглы {снег} ясно -46.5 -51.6 56 -47 -47 опасность
обморожения
1016.6 984.9
15 14.02 штиль 0 10 км ледяные иглы {снег} ясно -47.4 -52.6 55 -47 -47 опасность
обморожения
1015.2 983.5
18 14.02 штиль 0 10 км ледяные иглы {снег} ясно -47.9 -53.1 55 -48 -48 опасность
обморожения
1014.4 982.6
21 14.02 штиль 0 4000 м ледяные иглы {снег} 3/0
[Ci fib]
-47.9 -53.1 55 -48 -48 опасность
обморожения
1013.4 981.7 -48.1 52
00 15.02 ЮЗ 1 50 км ледяные иглы {снег} 6/0
[Ac trans Ci fib]
-42.6 -47.4 59 -48 -47 опасность
обморожения
1012.3 981.3
03 15.02 Ю 1 50 км 5/0
[Ac trans Ci fib]
-34.3 -42.2 44 -39 -38 опасность
обморожения
1009.3 979.4
06 15.02 ЮВ 1 50 км 5/0
[Ac trans Ci fib]
-34.6 -41.3 50 -39 -39 опасность
обморожения
1008.0 978.1
09 15.02 штиль 0 50 км 3/0
[Ci fib]
-42.7 -47.4 60 -43 -43 опасность
обморожения
1008.6 977.7 -32.7
12 15.02 штиль 0 50 км 3/0
[Ci fib]
-45.5 -50.4 57 -46 -46 опасность
обморожения
1008.2 976.9
15 15.02 штиль 0 50 км 4/0
[Ci fib]
-45.7 -50.8 56 -46 -46 опасность
обморожения
1007.3 976.1
18 15.02 штиль 0 4000 м ледяные иглы {снег} 3/0
[Ci fib]
-46.3 -51.5 55 -46 -46 опасность
обморожения
1007.1 975.8
21 15.02 штиль 0 50 км ледяные иглы {снег} 3/0
[Ci fib]
-47.1 -52.2 56 -47 -47 опасность
обморожения
1006.5 975.1 -47.1 52
00 16.02 штиль 0 50 км ледяные иглы {снег} 4/0
[Ci fib]
-41.7 -46.6 59 -42 -40 опасность
обморожения
1005.5 974.8
03 16.02 Ю 1 50 км {снег} 6/0
[Ci fib]
-33.8 -41.3 47 -38 -37 опасность
обморожения
1002.5 972.9
06 16.02 Ю 1 50 км в посл. час снег 9/0
[Ci fib]
-33.2 -38.9 56 -38 -38 опасность
обморожения
1001.8 972.3
09 16.02 штиль 0 20 км слаб. снег 10/0
[Cs]
-34.1 -38.6 64 -34 -34 опасность
обморожения
1002.3 972.7 -33.0 0.0
12 16.02 штиль 0 10 км слаб. снег 10/0
[Cs]
-35.4 -39.4 67 -35 -35 опасность
обморожения
1002.6 972.8
15 16.02 штиль 0 10 км слаб. снег 10/0
[Cs]
-34.0 -38.2 66 -34 -34 опасность
обморожения
1002.5 972.9
18 16.02 штиль 0 4000 м слаб. снег 10/0
[Cs]
-32.8 -37.2 65 -33 -33 опасность
обморожения
1003.0 973.5
21 16.02 штиль 0 20 км слаб. снег 10/0
[Cs]
-32.0 -36.3 65 -32 -32 опасность
обморожения
1003.8 974.4 -35.5 0.3 52
00 17.02 штиль 0 20 км слаб. снег 10/0
[As op]
-30.3 -35.3 62 -30 -30 1005.0 975.8
03 17.02 ЮВ 1 20 км слаб. снег 10/4 1000 м
[Sc Ac trans Cs]
-28.0 -32.7 64 -32 -31 опасность
обморожения
1004.6 975.7
06 17.02 штиль 0 20 км слаб. снег 10/5 1000 м
[Sc Ac trans Cs]
-26.4 -31.2 64 -26 -26 1005.5 976.7
09 17.02 Ю 1 20 км слаб. снег 10/3 1000 м
[Sc Ac trans Cs]
-26.7 -30.3 71 -30 -30 1006.9 978.0 -26.3 0.4
12 17.02 штиль 0 20 км слаб. снег 10/0
[Ac trans Cs]
-26.6 -29.9 74 -27 -27 1007.5 978.6
15 17.02 штиль 0 20 км слаб. снег 10/0
[Ac trans Cs]
-27.2 -30.3 75 -27 -27 1008.1 979.2
18 17.02 штиль 0 20 км слаб. снег 10/0
[Ac trans Cs]
-27.3 -30.2 76 -27 -27 1008.5 979.5
21 17.02 штиль 0 10 км слаб. снег 10/4 1000 м
[Sc As op]
-26.9 -29.9 76 -27 -27 1009.0 980.1 -27.4 0.3 52
00 18.02 Ю 1 4000 м слаб. снег 10/4 1000 м
[Sc As trans]
-25.0 -28.7 71 -29 -28 1009.5 980.8
03 18.02 штиль 0 10 км слаб. снег 10/3 1000 м
[Sc Ac trans Cs]
-21.9 -27.3 62 -22 -21 1009.1 980.8
06 18.02 Ю 1 50 км {снег} 10/0
[Ac As Cs]
-22.6 -26.8 68 -26 -26 1010.3 981.8
09 18.02 штиль 0 50 км 10/0
[Ac trans Cs]
-27.2 -30.2 76 -27 -27 1012.4 983.3 -21.2 0.4
12 18.02 штиль 0 50 км 9/0
[Ac trans Ci fib]
-34.8 -38.3 70 -35 -35 опасность
обморожения
1014.9 984.8
15 18.02 З 1 50 км ледяные иглы {снег} 5/0
[Ac trans Ci fib]
-36.7 -40.5 68 -42 -42 опасность
обморожения
1016.2 985.9
18 18.02 штиль 0 50 км ледяные иглы {снег} 5/0
[Ac trans Ci fib]
-37.7 -41.7 66 -38 -38 опасность
обморожения
1017.8 987.3
21 18.02 штиль 0 50 км ледяные иглы {снег} 5/0
[Ac trans Ci fib]
-39.7 -43.8 65 -40 -40 опасность
обморожения
1019.5 988.7 -39.7 53
00 19.02 штиль 0 50 км ледяные иглы {снег} 1/0
[Ci fib]
-33.2 -37.1 68 -33 -32 опасность
обморожения
1019.6 989.6 -40.7

 

Местоположение метеостанции Сеймчан (Магаданская область, Россия): широта 62.91 долгота 152.40 высота над уровнем моря 210 м.

В архиве по умолчанию представлена погода в Сеймчане за последнюю неделю. Архивные данные за месяц целиком и за предыдущие месяцы, начиная с января 2011 года, Вы можете получить, выбрав интересующий диапазон дат из раскрывающегося списка и нажав кнопку "Ввод!".


*Определитесь, кто Вы:
робот инопланетянин человек

Внимание! Время в таблицах - всемирное. Для получения местного времени необходимо прибавить поправку, которая равна 11 ч.

Смотрите также архив погоды в соседних городах и на ближайших метеорологических станциях:

Погода в Среднекане (Магаданская область, Россия) (51 км)
Погода в Совхозе Эльген (Магаданская область, Россия) (92 км)
Погода в Усть-Бохапче (Магаданская область, Россия) (129 км)
Погода в Балыгычане (Магаданская область, Россия) (140 км)
Погода в Ягодной (Магаданская область, Россия) (150 км)
Погода на Озере Джека Лондона (Магаданская область, Россия) (175 км)
Погода в Омсукчане (Магаданская область, Россия) (179 км)
Погода в Талой (Магаданская область, Россия) (198 км)
Погода в Коркодоне (Магаданская область, Россия) (217 км)
Погода в Сусумане (Магаданская область, Россия) (219 км)

Пояснения к столбцам:

Ветер - указаны скорость ветра в м/с - средняя за 10 мин, порывы в срок и между сроками (в фигурных скобках) и направление, откуда дует ветер: С - северный, СВ - северо-восточный, В - восточный, ЮВ - юго-восточный, Ю - южный, ЮЗ - юго-западный, З - западный, СЗ - северо-западный.
Видимость - горизонтальная дальность видимости в метрах или километрах. При видимости от 1 до 10 км при отсутствии осадков обычно наблюдается дымка, при ухудшении видимости до 1 км и менее - туман. В сухую погоду видимость может ухудшаться дымом, пылью или мглою.
Явления - указаны атмосферные явления, наблюдавшиеся в срок или в последний час перед сроком; фигурными скобками обозначены явления, наблюдавшиеся между сроками (за 1-3 часа до срока); квадратными скобками обозначены град или гололедные отложения с указанием их диаметра в мм.
Облачность - указаны через наклонную черту общая и нижняя облачность в баллах и высота нижней границы облаков в метрах; квадратными скобками обозначены формы облаков: Ci - перистые, Cs - перисто-слоистые, Cc - перисто-кучевые, Ac - высококучевые, As - высокослоистые, Sc - слоисто-кучевые, Ns - слоисто-дождевые, Cu - кучевые, Cb - кучево-дождевые. Подробнее классификацию облаков см. в Атласе облаков (PDF).
T - Температура воздуха - температура, измеренная на высоте 2 м над землей.
Td - Температура точки росы - температура, при понижении до которой содержащийся в воздухе водяной пар достигнет насыщения.
f - Относительная влажность воздуха - влажноcть воздуха, измеренная на высоте 2 м над землей.
Te - Эффективная температура - температура, которую ощущает одетый по сезону человек в тени. Характеристика душности погоды. При расчете учитывается влияние влажности воздуха и скорости ветра на теплоощущения человека.
Tes - Эффективная температура на солнце - температура, которую ощущает человек, с поправкой на солнечный нагрев. Характеристика знойности погоды. Зависит от высоты солнца над горизонтом, облачности и скорости ветра. Ночью, в пасмурную погоду, а также при ветре 12 м/с и более поправка равна нулю.
P - Атмосферное давление - приведенное к уровню моря атмосферное давление.
Po - Атмосферное давление - измеренное на уровне метеостанции атмосферное давление.
Tmin - Минимальная температура - минимум температуры воздуха на высоте 2 м над землей.
Tmax - Максимальная температура - максимум температуры воздуха на высоте 2 м над землей.
R - Количество осадков - Количество выпавших осадков за период времени, мм. При наведении курсора мыши на число - период времени, за который выпало указанное количество осадков.
R24 - Количество осадков - Количество выпавших осадков за 24 часа, мм.
S - Снежный покров - Высота снежного покрова, см. При наведении курсора мыши на число - состояние снежного покрова и степень покрытия местности в баллах.